Location: Capannuccia
(43.7000°N, 11.3000°E)
Time: 17:29:30
(UTC+00:00)

STARLINK-35 - Pass Details

Date: 07 June 2020
Orbit: 434 x 435 km, 53.0° (Epoch: 04 July)

Event Time Altitude Azimuth Distance (km) Brightness Sun altitude
Exits shadow 00:53:03 14° 119° (ESE) 1,306 5.5 -19.7°
Drops below altitude 10° 00:54:31 10° 95° (E) 1,539 6.1 -19.6°
Enters shadow 01:50:43 -71° 236° (SW) 12,503 10.4 -14.4°
Maximum altitude 02:29:14 75° 326° (NW) 454 3.2 -9.8°
